Date String (YYYY-MM-DD hh:mm:ss) UTC,Instrument flags,Ambient pressure (hPa),Sample flow (lpm),Bypass flow (lpm),Sample temperature (°C),Ambient temperature (°C),ASC tube jacket temperature (°C),LED temperature (°C),Box temperature (°C),Sample RH (%),Span deviation,Mass concentration (μg/m³),Mass concentration (μg/m³),Mass concentration (μg/m³)
DateTimeUTC,F1_M11,P_M11,Q1_M11,Q2_M11,T1_M11,T2_M11,T3_M11,T4_M11,T5_M11,U1_M11,ZSPAN_M11,X0_M11,X2_M11,X1_M11
2022-08-09 13:00:00,,0831.2,5.00,0.00,30.0,29.0,00.0,38.8,32.0,29.8,0000.0,0010.90,0005.54,0004.89
2022-08-09 13:01:00,,0831.2,5.00,0.00,30.0,29.0,00.0,38.8,32.0,29.7,0000.0,0011.48,0005.55,0004.89
2022-08-09 13:02:00,,0831.2,5.00,0.00,30.0,28.6,00.0,38.8,31.9,29.7,0000.0,0011.70,0005.54,0004.89
2022-08-09 13:03:00,,0831.2,5.00,0.00,30.0,28.0,00.0,38.7,31.8,29.6,0000.0,0012.61,0005.56,0004.89
2022-08-09 13:04:00,,0831.2,5.01,0.00,30.0,27.8,00.0,38.7,31.7,29.1,0000.0,0013.49,0005.55,0004.89
2022-08-09 13:05:00,,0831.2,4.99,0.00,29.9,27.8,00.0,38.7,31.6,29.3,0000.0,0013.88,0005.56,0004.91
2022-08-09 13:06:00,,0831.2,5.01,0.00,29.8,27.9,00.0,38.7,31.6,29.1,0000.0,0013.52,0005.57,0004.93
2022-08-09 13:07:00,,0831.3,4.99,0.00,29.8,28.0,00.0,38.7,31.6,28.9,0000.0,0014.28,0005.54,0004.93
2022-08-09 13:08:00,,0831.3,5.00,0.00,29.8,28.1,00.0,38.7,31.7,29.6,0000.0,0015.09,0005.56,0004.94
2022-08-09 13:09:00,,0831.3,5.01,0.00,29.8,28.2,00.0,38.7,31.7,29.7,0000.0,0014.94,0005.58,0004.96
2022-08-09 13:10:00,,0831.3,5.00,0.00,29.8,28.3,00.0,38.7,31.7,29.5,0000.0,0015.01,0005.58,0004.96
2022-08-09 13:11:00,,0831.3,5.01,0.00,29.8,28.4,00.0,38.7,31.7,29.7,0000.0,0015.62,0005.56,0004.96
2022-08-09 13:12:00,,0831.4,4.99,0.00,29.8,28.5,00.0,38.7,31.8,28.8,0000.0,0015.82,0005.54,0004.97
2022-08-09 13:13:00,,0831.4,4.99,0.00,29.8,28.6,00.0,38.7,31.7,29.3,0000.0,0016.12,0005.56,0004.98
2022-08-09 13:14:00,,0831.5,5.00,0.00,29.9,28.6,00.0,38.7,31.8,28.4,0000.0,0015.56,0005.57,0004.97
2022-08-09 13:15:00,,0831.5,4.99,0.00,29.9,28.7,00.0,38.7,31.8,28.7,0000.0,0015.08,0005.60,0004.99
2022-08-09 13:16:00,,0831.5,5.01,0.00,29.9,28.7,00.0,38.7,31.8,28.6,0000.0,0014.59,0005.59,0004.99
2022-08-09 13:17:00,,0831.5,5.00,0.00,29.9,28.8,00.0,38.7,31.9,28.7,0000.0,0014.51,0005.62,0004.99
2022-08-09 13:18:00,,0831.5,5.01,0.00,29.9,28.8,00.0,38.7,31.9,28.5,0000.0,0013.78,0005.66,0004.99
2022-08-09 13:19:00,,0831.5,5.00,0.00,29.9,28.9,00.0,38.7,31.9,28.9,0000.0,0013.07,0005.67,0005.00
2022-08-09 13:20:00,,0831.5,5.00,0.00,30.0,28.9,00.0,38.7,31.9,29.1,0000.0,0012.36,0005.68,0004.99
2022-08-09 13:21:00,,0831.6,5.00,0.00,30.0,29.0,00.0,38.7,31.9,28.9,0000.0,0012.23,0005.64,0004.98
2022-08-09 13:22:00,,0831.5,5.00,0.00,30.0,29.0,00.0,38.8,32.0,28.8,0000.0,0011.67,0005.67,0004.98
2022-08-09 13:23:00,,0831.5,5.00,0.00,30.0,29.0,00.0,38.8,32.0,28.4,0000.0,0010.82,0005.67,0004.97
2022-08-09 13:24:00,,0831.5,5.00,0.00,30.0,29.0,00.0,38.8,32.0,28.6,0000.0,0010.16,0005.63,0004.95
2022-08-09 13:25:00,,0831.5,5.00,0.00,30.1,28.6,00.0,38.8,31.9,29.5,0000.0,0010.28,0005.67,0004.94
2022-08-09 13:26:00,,0831.5,5.01,0.00,30.0,27.9,00.0,38.7,31.7,28.9,0000.0,0009.86,0005.67,0004.94
2022-08-09 13:27:00,,0831.5,4.99,0.00,29.9,27.5,00.0,38.7,31.6,29.1,0000.0,0009.98,0005.67,0004.92
2022-08-09 13:28:00,,0831.5,5.00,0.00,29.8,27.5,00.0,38.7,31.5,29.3,0000.0,0009.90,0005.69,0004.90
2022-08-09 13:29:00,,0831.5,5.00,0.00,29.8,27.6,00.0,38.7,31.5,29.7,0000.0,0010.00,0005.69,0004.89
2022-08-09 13:30:00,,0831.5,4.99,0.00,29.7,27.7,00.0,38.6,31.5,29.2,0000.0,0010.13,0005.67,0004.88
2022-08-09 13:31:00,,0831.5,5.00,0.00,29.7,27.8,00.0,38.6,31.5,29.0,0000.0,0010.15,0005.66,0004.88
2022-08-09 13:32:00,,0831.5,5.00,0.00,29.7,28.0,00.0,38.6,31.5,29.1,0000.0,0010.12,0005.67,0004.89
2022-08-09 13:33:00,,0831.5,4.99,0.00,29.7,28.1,00.0,38.6,31.6,29.4,0000.0,0010.09,0005.65,0004.90
2022-08-09 13:34:00,,0831.5,5.00,0.00,29.7,28.2,00.0,38.6,31.6,29.0,0000.0,0010.25,0005.67,0004.91
2022-08-09 13:35:00,,0831.5,5.01,0.00,29.7,28.3,00.0,38.6,31.6,28.7,0000.0,0010.51,0005.73,0004.92
2022-08-09 13:36:00,,0831.6,5.00,0.00,29.7,28.4,00.0,38.6,31.7,28.9,0000.0,0010.28,0005.71,0004.92
2022-08-09 13:37:00,,0831.6,5.00,0.00,29.8,28.5,00.0,38.6,31.7,29.3,0000.0,0010.42,0005.66,0004.92
2022-08-09 13:38:00,,0831.5,5.00,0.00,29.8,28.6,00.0,38.6,31.7,28.8,0000.0,0010.52,0005.67,0004.91
2022-08-09 13:39:00,,0831.5,5.00,0.00,29.8,28.7,00.0,38.6,31.8,28.2,0000.0,0010.39,0005.65,0004.93
2022-08-09 13:40:00,,0831.6,5.00,0.00,29.8,28.7,00.0,38.6,31.8,28.6,0000.0,0010.29,0005.62,0004.93
2022-08-09 13:41:00,,0831.6,5.00,0.00,29.8,28.8,00.0,38.6,31.8,28.7,0000.0,0010.10,0005.63,0004.93
2022-08-09 13:42:00,,0831.6,5.00,0.00,29.9,28.8,00.0,38.7,31.8,28.6,0000.0,0010.18,0005.63,0004.92
2022-08-09 13:43:00,,0831.6,4.99,0.00,29.9,28.9,00.0,38.7,31.8,28.0,0000.0,0010.23,0005.63,0004.90
2022-08-09 13:44:00,,0831.6,5.00,0.00,29.9,28.9,00.0,38.7,31.9,28.4,0000.0,0010.26,0005.65,0004.89
2022-08-09 13:45:00,,0831.5,5.01,0.00,29.9,28.9,00.0,38.7,31.9,28.1,0000.0,0010.06,0005.61,0004.88
2022-08-09 13:46:00,,0831.5,5.01,0.00,30.0,29.0,00.0,38.7,31.9,28.4,0000.0,0009.88,0005.56,0004.87
2022-08-09 13:47:00,,0831.6,5.00,0.00,30.0,29.0,00.0,38.7,31.9,28.5,0000.0,0009.89,0005.54,0004.86
2022-08-09 13:48:00,,0831.6,4.99,0.00,30.0,28.9,00.0,38.7,31.9,28.4,0000.0,0009.56,0005.52,0004.83
2022-08-09 13:49:00,,0831.6,5.01,0.00,30.0,28.2,00.0,38.7,31.8,28.8,0000.0,0009.37,0005.51,0004.81
2022-08-09 13:50:00,,0831.6,4.99,0.00,29.9,27.7,00.0,38.7,31.7,28.8,0000.0,0009.46,0005.45,0004.78
2022-08-09 13:51:00,,0831.6,5.01,0.00,29.9,27.5,00.0,38.6,31.6,29.4,0000.0,0009.58,0005.40,0004.74
2022-08-09 13:52:00,,0831.6,4.99,0.00,29.8,27.6,00.0,38.6,31.5,29.8,0000.0,0009.67,0005.38,0004.71
2022-08-09 13:53:00,,0831.6,5.01,0.00,29.8,27.7,00.0,38.6,31.5,29.9,0000.0,0010.81,0005.36,0004.69
2022-08-09 13:54:00,,0831.6,4.99,0.00,29.7,27.8,00.0,38.6,31.5,30.8,0000.0,0010.84,0005.35,0004.69
2022-08-09 13:55:00,,0831.6,5.00,0.00,29.7,28.0,00.0,38.6,31.5,30.4,0000.0,0010.81,0005.34,0004.70
2022-08-09 13:56:00,,0831.6,5.01,0.00,29.7,28.1,00.0,38.6,31.6,29.8,0000.0,0010.86,0005.34,0004.69
2022-08-09 13:57:00,,0831.5,4.99,0.00,29.7,28.2,00.0,38.6,31.6,30.1,0000.0,0010.72,0005.31,0004.68
2022-08-09 13:58:00,,0831.6,5.00,0.00,29.7,28.3,00.0,38.6,31.6,30.1,0000.0,0010.73,0005.30,0004.69
2022-08-09 13:59:00,,0831.6,5.00,0.00,29.7,28.4,00.0,38.6,31.7,29.8,0000.0,0010.57,0005.29,0004.70
